Time,TemperatureF,DewpointF,PressureIn,WindDirection,WindDirectionDegrees,WindSpeedMPH,WindSpeedGustMPH,Humidity,HourlyPrecipIn,Conditions,Clouds,dailyrainin,SoftwareType,DateUTC
2013-05-27 00:01:00,48.2,38.8,30.77,West,270,0.0,0.0,70,0.00,,,0.00,WUHU21623XXSP,2013-05-27 04:01:00,
2013-05-27 00:06:00,48.0,38.7,30.77,West,270,0.0,0.0,70,0.00,,,0.00,WUHU21623XXSP,2013-05-27 04:06:00,
2013-05-27 00:11:00,47.8,38.7,30.77,West,270,0.0,0.0,70,0.00,,,0.00,WUHU21623XXSP,2013-05-27 04:11:00,
2013-05-27 00:16:00,47.7,38.4,30.77,West,270,0.0,0.0,70,0.00,,,0.00,WUHU21623XXSP,2013-05-27 04:16:00,
2013-05-27 00:21:00,47.5,38.2,30.77,West,270,0.0,0.0,71,0.00,,,0.00,WUHU21623XXSP,2013-05-27 04:21:00,
2013-05-27 00:26:00,47.3,38.4,30.77,West,270,0.0,0.0,71,0.00,,,0.00,WUHU21623XXSP,2013-05-27 04:26:00,
2013-05-27 00:31:00,47.1,38.6,30.77,West,270,0.0,0.0,72,0.00,,,0.00,WUHU21623XXSP,2013-05-27 04:31:00,
2013-05-27 00:36:00,47.1,38.6,30.76,West,270,0.0,0.0,72,0.00,,,0.00,WUHU21623XXSP,2013-05-27 04:36:00,
2013-05-27 00:41:00,46.9,38.4,30.76,West,270,0.0,0.0,72,0.00,,,0.00,WUHU21623XXSP,2013-05-27 04:41:00,
2013-05-27 00:46:00,46.8,38.6,30.76,West,270,0.0,0.0,73,0.00,,,0.00,WUHU21623XXSP,2013-05-27 04:46:00,
2013-05-27 00:51:00,46.8,38.6,30.76,West,270,0.0,0.0,73,0.00,,,0.00,WUHU21623XXSP,2013-05-27 04:51:00,
2013-05-27 00:56:00,46.6,38.4,30.76,West,270,0.0,0.0,73,0.00,,,0.00,WUHU21623XXSP,2013-05-27 04:56:00,
2013-05-27 01:02:00,46.6,38.8,30.76,West,270,0.0,0.0,74,0.00,,,0.00,WUHU21623XXSP,2013-05-27 05:02:00,
2013-05-27 01:07:00,46.6,38.8,30.76,West,270,0.0,0.0,74,0.00,,,0.00,WUHU21623XXSP,2013-05-27 05:07:00,
2013-05-27 01:12:00,46.6,38.8,30.76,West,270,0.0,0.0,74,0.00,,,0.00,WUHU21623XXSP,2013-05-27 05:12:00,
2013-05-27 01:17:00,46.2,38.4,30.76,West,270,0.0,0.0,74,0.00,,,0.00,WUHU21623XXSP,2013-05-27 05:17:00,
2013-05-27 01:22:00,46.2,38.4,30.76,West,270,0.0,0.0,74,0.00,,,0.00,WUHU21623XXSP,2013-05-27 05:22:00,
2013-05-27 01:27:00,46.0,38.6,30.76,West,270,0.0,0.0,75,0.00,,,0.00,WUHU21623XXSP,2013-05-27 05:27:00,
2013-05-27 01:32:00,45.9,38.4,30.77,West,270,0.0,0.0,75,0.00,,,0.00,WUHU21623XXSP,2013-05-27 05:32:00,
2013-05-27 01:37:00,45.7,38.2,30.77,West,270,0.0,0.0,75,0.00,,,0.00,WUHU21623XXSP,2013-05-27 05:37:00,
2013-05-27 01:42:00,45.5,38.0,30.76,West,270,0.0,0.0,75,0.00,,,0.00,WUHU21623XXSP,2013-05-27 05:42:00,
2013-05-27 01:47:00,45.5,38.0,30.76,West,270,0.0,0.0,75,0.00,,,0.00,WUHU21623XXSP,2013-05-27 05:47:00,
2013-05-27 01:52:00,45.3,37.9,30.76,West,270,0.0,0.0,75,0.00,,,0.00,WUHU21623XXSP,2013-05-27 05:52:00,
2013-05-27 01:57:00,45.1,37.7,30.76,West,270,0.0,0.0,75,0.00,,,0.00,WUHU21623XXSP,2013-05-27 05:57:00,
2013-05-27 02:02:00,45.0,37.5,30.76,West,270,0.0,0.0,75,0.00,,,0.00,WUHU21623XXSP,2013-05-27 06:02:00,
2013-05-27 02:07:00,44.8,37.3,30.76,West,270,0.0,0.0,75,0.00,,,0.00,WUHU21623XXSP,2013-05-27 06:07:00,
2013-05-27 02:12:00,44.4,37.3,30.76,West,270,0.0,0.0,76,0.00,,,0.00,WUHU21623XXSP,2013-05-27 06:12:00,
2013-05-27 02:17:00,44.4,37.3,30.76,West,270,0.0,0.0,76,0.00,,,0.00,WUHU21623XXSP,2013-05-27 06:17:00,
2013-05-27 02:22:00,44.2,37.1,30.76,West,270,0.0,0.0,76,0.00,,,0.00,WUHU21623XXSP,2013-05-27 06:22:00,
2013-05-27 02:27:00,44.1,37.0,30.76,West,270,0.0,0.0,76,0.00,,,0.00,WUHU21623XXSP,2013-05-27 06:27:00,
2013-05-27 02:32:00,43.9,37.1,30.76,West,270,0.0,0.0,77,0.00,,,0.00,WUHU21623XXSP,2013-05-27 06:32:00,
2013-05-27 02:37:00,43.7,36.6,30.76,West,270,0.0,0.0,76,0.00,,,0.00,WUHU21623XXSP,2013-05-27 06:37:00,
2013-05-27 02:42:00,43.5,36.6,30.76,West,270,0.0,0.0,76,0.00,,,0.00,WUHU21623XXSP,2013-05-27 06:42:00,
2013-05-27 02:47:00,43.5,36.8,30.75,West,270,0.0,0.0,77,0.00,,,0.00,WUHU21623XXSP,2013-05-27 06:47:00,
2013-05-27 02:52:00,43.3,36.6,30.75,West,270,0.0,0.0,77,0.00,,,0.00,WUHU21623XXSP,2013-05-27 06:52:00,
2013-05-27 02:57:00,43.2,36.4,30.75,West,270,0.0,0.0,77,0.00,,,0.00,WUHU21623XXSP,2013-05-27 06:57:00,
2013-05-27 03:03:00,43.2,36.7,30.75,West,270,0.0,0.0,78,0.00,,,0.00,WUHU21623XXSP,2013-05-27 07:03:00,
2013-05-27 03:08:00,43.0,36.6,30.75,West,270,0.0,0.0,78,0.00,,,0.00,WUHU21623XXSP,2013-05-27 07:08:00,
2013-05-27 03:13:00,42.6,36.2,30.75,West,270,0.0,0.0,78,0.00,,,0.00,WUHU21623XXSP,2013-05-27 07:13:00,
2013-05-27 03:18:00,42.6,36.2,30.74,West,270,0.0,0.0,78,0.00,,,0.00,WUHU21623XXSP,2013-05-27 07:18:00,
2013-05-27 03:23:00,42.6,36.2,30.75,West,270,0.0,0.0,78,0.00,,,0.00,WUHU21623XXSP,2013-05-27 07:23:00,
2013-05-27 03:28:00,42.4,36.2,30.75,West,270,0.0,0.0,78,0.00,,,0.00,WUHU21623XXSP,2013-05-27 07:28:00,
2013-05-27 03:33:00,42.4,36.0,30.75,West,270,0.0,0.0,78,0.00,,,0.00,WUHU21623XXSP,2013-05-27 07:33:00,
2013-05-27 03:38:00,42.1,35.9,30.75,West,270,0.0,0.0,79,0.00,,,0.00,WUHU21623XXSP,2013-05-27 07:38:00,
2013-05-27 03:43:00,42.1,36.0,30.74,West,270,0.0,0.0,79,0.00,,,0.00,WUHU21623XXSP,2013-05-27 07:43:00,
2013-05-27 03:48:00,41.9,36.0,30.74,West,270,0.0,0.0,79,0.00,,,0.00,WUHU21623XXSP,2013-05-27 07:48:00,
2013-05-27 03:53:00,41.9,35.8,30.74,West,270,0.0,0.0,79,0.00,,,0.00,WUHU21623XXSP,2013-05-27 07:53:00,
2013-05-27 03:58:00,41.7,35.6,30.74,West,270,0.0,0.0,79,0.00,,,0.00,WUHU21623XXSP,2013-05-27 07:58:00,
2013-05-27 04:03:00,41.7,35.6,30.74,West,270,0.0,0.0,79,0.00,,,0.00,WUHU21623XXSP,2013-05-27 08:03:00,
2013-05-27 04:08:00,41.5,35.8,30.74,West,270,0.0,0.0,80,0.00,,,0.00,WUHU21623XXSP,2013-05-27 08:08:00,
2013-05-27 04:13:00,41.5,35.8,30.74,West,270,0.0,0.0,80,0.00,,,0.00,WUHU21623XXSP,2013-05-27 08:13:00,
2013-05-27 04:18:00,41.5,35.8,30.74,West,270,0.0,0.0,80,0.00,,,0.00,WUHU21623XXSP,2013-05-27 08:18:00,
2013-05-27 04:23:00,41.4,35.6,30.74,West,270,0.0,0.0,80,0.00,,,0.00,WUHU21623XXSP,2013-05-27 08:23:00,
2013-05-27 04:28:00,41.4,35.6,30.74,West,270,0.0,0.0,80,0.00,,,0.00,WUHU21623XXSP,2013-05-27 08:28:00,
2013-05-27 04:33:00,41.2,35.4,30.74,West,270,0.0,0.0,80,0.00,,,0.00,WUHU21623XXSP,2013-05-27 08:33:00,
2013-05-27 04:38:00,41.2,35.4,30.74,West,270,0.0,0.0,80,0.00,,,0.00,WUHU21623XXSP,2013-05-27 08:38:00,
2013-05-27 04:43:00,41.0,35.2,30.74,West,270,0.0,0.0,80,0.00,,,0.00,WUHU21623XXSP,2013-05-27 08:43:00,
2013-05-27 04:48:00,40.8,35.1,30.73,West,270,0.0,0.0,80,0.00,,,0.00,WUHU21623XXSP,2013-05-27 08:48:00,
2013-05-27 04:53:00,40.8,35.1,30.74,West,270,0.0,0.0,80,0.00,,,0.00,WUHU21623XXSP,2013-05-27 08:53:00,
2013-05-27 04:58:00,40.8,35.1,30.74,West,270,0.0,0.0,80,0.00,,,0.00,WUHU21623XXSP,2013-05-27 08:58:00,
2013-05-27 05:03:00,40.8,35.1,30.74,West,270,0.0,0.0,80,0.00,,,0.00,WUHU21623XXSP,2013-05-27 09:03:00,
2013-05-27 05:09:00,40.6,35.2,30.74,West,270,0.0,0.0,81,0.00,,,0.00,WUHU21623XXSP,2013-05-27 09:09:00,
2013-05-27 05:14:00,40.6,35.2,30.74,West,270,0.0,0.0,81,0.00,,,0.00,WUHU21623XXSP,2013-05-27 09:14:00,
2013-05-27 05:19:00,40.5,35.0,30.74,West,270,0.0,0.0,81,0.00,,,0.00,WUHU21623XXSP,2013-05-27 09:19:00,
2013-05-27 05:24:00,40.5,35.0,30.74,West,270,0.0,0.0,81,0.00,,,0.00,WUHU21623XXSP,2013-05-27 09:24:00,
2013-05-27 05:29:00,40.3,34.9,30.74,West,270,0.0,0.0,81,0.00,,,0.00,WUHU21623XXSP,2013-05-27 09:29:00,
2013-05-27 05:34:00,40.3,34.9,30.74,West,270,0.0,0.0,81,0.00,,,0.00,WUHU21623XXSP,2013-05-27 09:34:00,
2013-05-27 05:39:00,40.3,34.9,30.73,West,270,0.0,0.0,81,0.00,,,0.00,WUHU21623XXSP,2013-05-27 09:39:00,
2013-05-27 05:44:00,40.3,34.9,30.74,West,270,0.0,0.0,81,0.00,,,0.00,WUHU21623XXSP,2013-05-27 09:44:00,
2013-05-27 05:49:00,40.3,34.9,30.74,West,270,0.0,0.0,81,0.00,,,0.00,WUHU21623XXSP,2013-05-27 09:49:00,
2013-05-27 05:54:00,40.3,34.9,30.74,West,270,0.0,0.0,81,0.00,,,0.00,WUHU21623XXSP,2013-05-27 09:54:00,
2013-05-27 05:59:00,40.3,34.9,30.74,West,270,0.0,0.0,81,0.00,,,0.00,WUHU21623XXSP,2013-05-27 09:59:00,
2013-05-27 06:04:00,40.3,34.9,30.74,West,270,0.0,0.0,81,0.00,,,0.00,WUHU21623XXSP,2013-05-27 10:04:00,
2013-05-27 06:09:00,40.3,35.2,30.74,West,270,0.0,0.0,82,0.00,,,0.00,WUHU21623XXSP,2013-05-27 10:09:00,
2013-05-27 06:14:00,40.3,35.2,30.74,West,270,0.0,0.0,82,0.00,,,0.00,WUHU21623XXSP,2013-05-27 10:14:00,
2013-05-27 06:19:00,40.3,35.2,30.74,West,270,0.0,0.0,82,0.00,,,0.00,WUHU21623XXSP,2013-05-27 10:19:00,
2013-05-27 06:24:00,40.5,35.3,30.74,West,270,0.0,0.0,82,0.00,,,0.00,WUHU21623XXSP,2013-05-27 10:24:00,
2013-05-27 06:29:00,40.8,35.7,30.74,West,270,0.0,0.0,82,0.00,,,0.00,WUHU21623XXSP,2013-05-27 10:29:00,
2013-05-27 06:34:00,40.8,35.7,30.74,West,270,0.0,0.0,82,0.00,,,0.00,WUHU21623XXSP,2013-05-27 10:34:00,
2013-05-27 06:39:00,40.8,35.7,30.74,West,270,0.0,0.0,82,0.00,,,0.00,WUHU21623XXSP,2013-05-27 10:39:00,
2013-05-27 06:44:00,40.8,35.7,30.74,West,270,0.0,0.0,82,0.00,,,0.00,WUHU21623XXSP,2013-05-27 10:44:00,
2013-05-27 06:49:00,41.0,35.9,30.74,West,270,0.0,0.0,82,0.00,,,0.00,WUHU21623XXSP,2013-05-27 10:49:00,
2013-05-27 06:55:00,41.2,36.0,30.74,West,270,0.0,0.0,82,0.00,,,0.00,WUHU21623XXSP,2013-05-27 10:55:00,
2013-05-27 07:00:00,41.4,36.2,30.74,West,270,0.0,0.0,82,0.00,,,0.00,WUHU21623XXSP,2013-05-27 11:00:00,
2013-05-27 07:05:00,41.4,36.5,30.74,West,270,0.0,0.0,83,0.00,,,0.00,WUHU21623XXSP,2013-05-27 11:05:00,
2013-05-27 07:10:00,41.5,36.7,30.74,West,270,0.0,0.0,83,0.00,,,0.00,WUHU21623XXSP,2013-05-27 11:10:00,
2013-05-27 07:15:00,41.9,37.1,30.75,West,270,0.0,0.0,83,0.00,,,0.00,WUHU21623XXSP,2013-05-27 11:15:00,
2013-05-27 07:20:00,42.1,37.2,30.75,West,270,0.0,0.0,83,0.00,,,0.00,WUHU21623XXSP,2013-05-27 11:20:00,
2013-05-27 07:25:00,42.6,37.8,30.75,West,270,0.0,0.0,83,0.00,,,0.00,WUHU21623XXSP,2013-05-27 11:25:00,
2013-05-27 07:30:00,42.8,38.0,30.75,West,270,0.0,0.0,83,0.00,,,0.00,WUHU21623XXSP,2013-05-27 11:30:00,
2013-05-27 07:35:00,43.2,38.3,30.75,West,270,0.0,0.0,83,0.00,,,0.00,WUHU21623XXSP,2013-05-27 11:35:00,
2013-05-27 07:40:00,43.5,38.7,30.75,West,270,0.0,0.0,83,0.00,,,0.00,WUHU21623XXSP,2013-05-27 11:40:00,
2013-05-27 07:45:00,43.9,39.0,30.75,West,270,0.0,0.0,83,0.00,,,0.00,WUHU21623XXSP,2013-05-27 11:45:00,
2013-05-27 07:50:00,44.2,39.4,30.75,WNW,292,0.0,0.0,83,0.00,,,0.00,WUHU21623XXSP,2013-05-27 11:50:00,
2013-05-27 07:55:00,44.6,39.6,30.75,WNW,292,0.0,0.0,83,0.00,,,0.00,WUHU21623XXSP,2013-05-27 11:55:00,
2013-05-27 08:00:00,45.1,40.0,30.75,WNW,292,0.0,0.0,82,0.00,,,0.00,WUHU21623XXSP,2013-05-27 12:00:00,
2013-05-27 08:05:00,45.1,40.0,30.75,WNW,292,0.0,0.0,82,0.00,,,0.00,WUHU21623XXSP,2013-05-27 12:05:00,
2013-05-27 08:10:00,45.7,40.5,30.74,North,0,0.0,0.0,82,0.00,,,0.00,WUHU21623XXSP,2013-05-27 12:10:00,
2013-05-27 08:15:00,46.0,40.9,30.74,NNE,22,0.0,0.0,82,0.00,,,0.00,WUHU21623XXSP,2013-05-27 12:15:00,
2013-05-27 08:20:00,46.2,40.8,30.74,NW,315,0.0,0.0,81,0.00,,,0.00,WUHU21623XXSP,2013-05-27 12:20:00,
2013-05-27 08:25:00,46.6,40.8,30.74,NNE,22,0.0,0.0,80,0.00,,,0.00,WUHU21623XXSP,2013-05-27 12:25:00,
2013-05-27 08:30:00,46.9,41.1,30.74,NNW,337,0.0,0.0,80,0.00,,,0.00,WUHU21623XXSP,2013-05-27 12:30:00,
2013-05-27 08:35:00,47.5,41.6,30.74,NNW,337,0.0,0.0,80,0.00,,,0.00,WUHU21623XXSP,2013-05-27 12:35:00,
2013-05-27 08:40:00,47.8,41.9,30.74,North,0,0.0,0.0,80,0.00,,,0.00,WUHU21623XXSP,2013-05-27 12:40:00,
2013-05-27 08:45:00,48.0,41.8,30.74,North,0,0.0,0.0,79,0.00,,,0.00,WUHU21623XXSP,2013-05-27 12:45:00,
2013-05-27 08:50:00,48.7,42.5,30.74,North,0,0.0,0.0,79,0.00,,,0.00,WUHU21623XXSP,2013-05-27 12:50:00,
2013-05-27 08:55:00,49.1,42.5,30.74,North,0,0.0,0.0,78,0.00,,,0.00,WUHU21623XXSP,2013-05-27 12:55:00,
2013-05-27 09:00:00,49.6,43.0,30.74,NNE,22,0.0,0.0,78,0.00,,,0.00,WUHU21623XXSP,2013-05-27 13:00:00,
2013-05-27 09:05:00,50.2,43.2,30.74,NNE,22,0.0,0.0,77,0.00,,,0.00,WUHU21623XXSP,2013-05-27 13:05:00,
2013-05-27 09:10:00,50.5,43.2,30.74,WNW,292,0.0,0.0,76,0.00,,,0.00,WUHU21623XXSP,2013-05-27 13:10:00,
2013-05-27 09:15:00,50.9,42.9,30.74,West,270,0.0,0.0,74,0.00,,,0.00,WUHU21623XXSP,2013-05-27 13:15:00,
2013-05-27 09:20:00,51.3,43.3,30.74,NNE,22,0.0,0.0,74,0.00,,,0.00,WUHU21623XXSP,2013-05-27 13:20:00,
2013-05-27 09:25:00,51.4,43.4,30.74,East,90,0.0,0.0,74,0.00,,,0.00,WUHU21623XXSP,2013-05-27 13:25:00,
2013-05-27 09:30:00,51.6,43.6,30.74,East,90,0.0,0.0,74,0.00,,,0.00,WUHU21623XXSP,2013-05-27 13:30:00,
2013-05-27 09:35:00,52.2,43.8,30.74,ENE,67,0.0,0.0,73,0.00,,,0.00,WUHU21623XXSP,2013-05-27 13:35:00,
2013-05-27 09:40:00,52.3,43.3,30.74,ENE,67,0.0,0.0,71,0.00,,,0.00,WUHU21623XXSP,2013-05-27 13:40:00,
2013-05-27 09:45:00,52.7,43.3,30.74,WNW,292,0.0,0.0,70,0.00,,,0.00,WUHU21623XXSP,2013-05-27 13:45:00,
2013-05-27 09:50:00,53.1,43.6,30.74,WNW,292,0.0,0.0,70,0.00,,,0.00,WUHU21623XXSP,2013-05-27 13:50:00,
2013-05-27 09:56:00,53.2,43.3,30.74,West,270,0.0,0.0,69,0.00,,,0.00,WUHU21623XXSP,2013-05-27 13:56:00,
2013-05-27 10:01:00,53.6,43.3,30.74,West,270,0.0,0.0,68,0.00,,,0.00,WUHU21623XXSP,2013-05-27 14:01:00,
2013-05-27 10:06:00,54.1,43.0,30.74,SSE,157,0.0,0.0,66,0.00,,,0.00,WUHU21623XXSP,2013-05-27 14:06:00,
2013-05-27 10:11:00,54.5,42.9,30.74,SSW,202,0.0,0.0,65,0.00,,,0.00,WUHU21623XXSP,2013-05-27 14:11:00,
2013-05-27 10:16:00,54.9,43.3,30.73,SSW,202,0.0,0.0,65,0.00,,,0.00,WUHU21623XXSP,2013-05-27 14:16:00,
2013-05-27 10:21:00,55.4,43.0,30.73,East,90,0.0,0.0,63,0.00,,,0.00,WUHU21623XXSP,2013-05-27 14:21:00,
2013-05-27 10:26:00,55.8,42.5,30.73,ESE,112,0.0,0.0,61,0.00,,,0.00,WUHU21623XXSP,2013-05-27 14:26:00,
2013-05-27 10:31:00,56.1,42.0,30.73,NE,45,0.0,0.0,59,0.00,,,0.00,WUHU21623XXSP,2013-05-27 14:31:00,
2013-05-27 10:36:00,56.7,42.0,30.72,NE,45,0.0,0.0,58,0.00,,,0.00,WUHU21623XXSP,2013-05-27 14:36:00,
2013-05-27 10:41:00,56.8,41.8,30.72,WNW,292,0.0,0.0,57,0.00,,,0.00,WUHU21623XXSP,2013-05-27 14:41:00,
2013-05-27 10:46:00,57.4,41.3,30.71,WSW,247,0.0,0.0,55,0.00,,,0.00,WUHU21623XXSP,2013-05-27 14:46:00,
2013-05-27 10:51:00,57.7,40.7,30.71,WSW,247,0.0,0.0,53,0.00,,,0.00,WUHU21623XXSP,2013-05-27 14:51:00,
2013-05-27 10:56:00,57.9,40.9,30.71,NW,315,0.0,0.0,54,0.00,,,0.00,WUHU21623XXSP,2013-05-27 14:56:00,
2013-05-27 11:01:00,58.6,42.5,30.71,WNW,292,0.0,0.0,55,0.00,,,0.00,WUHU21623XXSP,2013-05-27 15:01:00,
2013-05-27 11:06:00,58.8,41.7,30.71,West,270,0.0,0.0,53,0.00,,,0.00,WUHU21623XXSP,2013-05-27 15:06:00,
2013-05-27 11:11:00,59.2,41.1,30.71,NNW,337,0.0,0.0,51,0.00,,,0.00,WUHU21623XXSP,2013-05-27 15:11:00,
2013-05-27 11:16:00,59.5,40.9,30.70,West,270,0.0,0.0,50,0.00,,,0.00,WUHU21623XXSP,2013-05-27 15:16:00,
2013-05-27 11:21:00,59.9,41.3,30.70,North,0,0.0,0.0,50,0.00,,,0.00,WUHU21623XXSP,2013-05-27 15:21:00,
2013-05-27 11:26:00,60.1,40.9,30.70,West,270,0.0,0.0,49,0.00,,,0.00,WUHU21623XXSP,2013-05-27 15:26:00,
2013-05-27 11:31:00,60.6,40.8,30.69,WSW,247,0.0,3.1,48,0.00,,,0.00,WUHU21623XXSP,2013-05-27 15:31:00,
2013-05-27 11:36:00,61.0,41.1,30.69,WSW,247,0.0,3.1,48,0.00,,,0.00,WUHU21623XXSP,2013-05-27 15:36:00,
2013-05-27 11:41:00,61.3,41.4,30.69,WSW,247,0.0,0.0,48,0.00,,,0.00,WUHU21623XXSP,2013-05-27 15:41:00,
2013-05-27 11:46:00,61.5,40.4,30.69,West,270,0.0,0.0,46,0.00,,,0.00,WUHU21623XXSP,2013-05-27 15:46:00,
2013-05-27 11:51:00,61.5,39.8,30.68,WSW,247,2.0,2.0,45,0.00,,,0.00,WUHU21623XXSP,2013-05-27 15:51:00,
2013-05-27 11:56:00,61.9,39.6,30.68,WSW,247,0.0,2.0,44,0.00,,,0.00,WUHU21623XXSP,2013-05-27 15:56:00,
2013-05-27 12:01:00,62.4,40.7,30.68,West,270,0.0,0.0,45,0.00,,,0.00,WUHU21623XXSP,2013-05-27 16:01:00,
2013-05-27 12:06:00,62.6,40.2,30.68,NNW,337,0.0,0.0,44,0.00,,,0.00,WUHU21623XXSP,2013-05-27 16:06:00,
2013-05-27 12:11:00,63.0,41.1,30.68,NNE,22,0.0,0.0,45,0.00,,,0.00,WUHU21623XXSP,2013-05-27 16:11:00,
2013-05-27 12:16:00,63.3,39.7,30.68,WSW,247,0.0,0.0,42,0.00,,,0.00,WUHU21623XXSP,2013-05-27 16:16:00,
2013-05-27 12:21:00,63.7,39.5,30.68,WSW,247,0.7,0.7,41,0.00,,,0.00,WUHU21623XXSP,2013-05-27 16:21:00,
2013-05-27 12:26:00,64.0,41.0,30.67,West,270,0.0,0.7,43,0.00,,,0.00,WUHU21623XXSP,2013-05-27 16:26:00,
2013-05-27 12:31:00,64.6,41.5,30.67,West,270,1.3,1.3,43,0.00,,,0.00,WUHU21623XXSP,2013-05-27 16:31:00,
2013-05-27 12:37:00,64.9,41.2,30.68,ENE,67,1.3,1.3,42,0.00,,,0.00,WUHU21623XXSP,2013-05-27 16:37:00,
2013-05-27 12:42:00,65.3,42.1,30.67,WSW,247,0.0,1.3,43,0.00,,,0.00,WUHU21623XXSP,2013-05-27 16:42:00,
2013-05-27 12:47:00,65.8,41.4,30.66,West,270,0.0,0.0,41,0.00,,,0.00,WUHU21623XXSP,2013-05-27 16:47:00,
2013-05-27 12:52:00,66.0,43.4,30.67,West,270,1.6,1.6,44,0.00,,,0.00,WUHU21623XXSP,2013-05-27 16:52:00,
2013-05-27 12:57:00,65.8,42.6,30.66,WSW,247,0.9,2.5,43,0.00,,,0.00,WUHU21623XXSP,2013-05-27 16:57:00,
2013-05-27 13:02:00,65.5,42.9,30.66,WSW,247,3.1,3.1,44,0.00,,,0.00,WUHU21623XXSP,2013-05-27 17:02:00,
2013-05-27 13:07:00,65.8,43.2,30.66,WSW,247,0.0,3.1,44,0.00,,,0.00,WUHU21623XXSP,2013-05-27 17:07:00,
2013-05-27 13:12:00,66.0,43.4,30.66,WSW,247,0.0,0.0,44,0.00,,,0.00,WUHU21623XXSP,2013-05-27 17:12:00,
2013-05-27 13:17:00,65.8,43.2,30.66,WSW,247,0.0,0.0,44,0.00,,,0.00,WUHU21623XXSP,2013-05-27 17:17:00,
2013-05-27 13:22:00,65.1,41.4,30.65,WSW,247,0.0,0.0,42,0.00,,,0.00,WUHU21623XXSP,2013-05-27 17:22:00,
2013-05-27 13:27:00,64.9,42.4,30.65,WSW,247,1.1,1.1,44,0.00,,,0.00,WUHU21623XXSP,2013-05-27 17:27:00,
2013-05-27 13:32:00,64.9,42.4,30.65,WSW,247,0.0,1.1,44,0.00,,,0.00,WUHU21623XXSP,2013-05-27 17:32:00,
2013-05-27 13:37:00,65.3,43.3,30.65,NNW,337,0.0,0.0,45,0.00,,,0.00,WUHU21623XXSP,2013-05-27 17:37:00,
2013-05-27 13:42:00,66.4,44.3,30.65,WNW,292,0.0,0.0,45,0.00,,,0.00,WUHU21623XXSP,2013-05-27 17:42:00,
2013-05-27 13:47:00,66.6,43.9,30.65,West,270,0.0,0.0,44,0.00,,,0.00,WUHU21623XXSP,2013-05-27 17:47:00,
2013-05-27 13:52:00,66.6,42.7,30.65,WSW,247,0.0,0.0,42,0.00,,,0.00,WUHU21623XXSP,2013-05-27 17:52:00,
2013-05-27 13:57:00,66.6,42.7,30.65,SW,225,0.0,1.6,42,0.00,,,0.00,WUHU21623XXSP,2013-05-27 17:57:00,
2013-05-27 14:02:00,66.6,43.9,30.64,WSW,247,0.0,3.1,44,0.00,,,0.00,WUHU21623XXSP,2013-05-27 18:02:00,
2013-05-27 14:07:00,66.9,43.6,30.64,WSW,247,0.0,3.1,43,0.00,,,0.00,WUHU21623XXSP,2013-05-27 18:07:00,
2013-05-27 14:12:00,67.8,45.6,30.64,SW,225,0.0,0.0,45,0.00,,,0.00,WUHU21623XXSP,2013-05-27 18:12:00,
2013-05-27 14:17:00,68.5,45.1,30.64,SW,225,0.0,0.0,43,0.00,,,0.00,WUHU21623XXSP,2013-05-27 18:17:00,
2013-05-27 14:22:00,68.2,43.0,30.64,SW,225,1.8,2.2,40,0.00,,,0.00,WUHU21623XXSP,2013-05-27 18:22:00,
2013-05-27 14:27:00,67.6,43.7,30.64,WSW,247,1.6,2.2,42,0.00,,,0.00,WUHU21623XXSP,2013-05-27 18:27:00,
2013-05-27 14:32:00,67.3,43.9,30.64,WSW,247,0.0,1.6,43,0.00,,,0.00,WUHU21623XXSP,2013-05-27 18:32:00,
2013-05-27 14:37:00,67.3,43.9,30.63,WSW,247,2.5,2.5,43,0.00,,,0.00,WUHU21623XXSP,2013-05-27 18:37:00,
2013-05-27 14:42:00,67.1,43.8,30.63,WSW,247,0.0,2.5,43,0.00,,,0.00,WUHU21623XXSP,2013-05-27 18:42:00,
2013-05-27 14:47:00,67.1,43.8,30.63,WSW,247,0.0,0.0,43,0.00,,,0.00,WUHU21623XXSP,2013-05-27 18:47:00,
2013-05-27 14:52:00,67.1,43.2,30.63,WSW,247,3.4,3.4,42,0.00,,,0.00,WUHU21623XXSP,2013-05-27 18:52:00,
2013-05-27 14:58:00,67.1,44.4,30.63,WSW,247,0.0,3.4,44,0.00,,,0.00,WUHU21623XXSP,2013-05-27 18:58:00,
2013-05-27 15:03:00,67.6,44.3,30.63,WSW,247,0.0,3.4,43,0.00,,,0.00,WUHU21623XXSP,2013-05-27 19:03:00,
2013-05-27 15:08:00,68.2,44.7,30.63,WSW,247,0.0,2.2,43,0.00,,,0.00,WUHU21623XXSP,2013-05-27 19:08:00,
2013-05-27 15:13:00,69.1,45.6,30.63,WSW,247,0.0,2.2,43,0.00,,,0.00,WUHU21623XXSP,2013-05-27 19:13:00,
2013-05-27 15:18:00,70.7,46.4,30.62,WSW,247,1.8,1.8,42,0.00,,,0.00,WUHU21623XXSP,2013-05-27 19:18:00,
2013-05-27 15:23:00,70.9,45.4,30.62,WSW,247,2.5,4.5,40,0.00,,,0.00,WUHU21623XXSP,2013-05-27 19:23:00,
2013-05-27 15:28:00,70.9,47.2,30.62,WSW,247,2.5,4.5,43,0.00,,,0.00,WUHU21623XXSP,2013-05-27 19:28:00,
2013-05-27 15:33:00,70.5,45.1,30.62,WSW,247,0.0,2.5,40,0.00,,,0.00,WUHU21623XXSP,2013-05-27 19:33:00,
2013-05-27 15:38:00,69.6,45.4,30.61,WSW,247,0.0,2.2,42,0.00,,,0.00,WUHU21623XXSP,2013-05-27 19:38:00,
2013-05-27 15:43:00,69.4,45.9,30.62,WSW,247,0.0,1.1,43,0.00,,,0.00,WUHU21623XXSP,2013-05-27 19:43:00,
2013-05-27 15:48:00,68.9,45.4,30.61,WSW,247,0.0,0.0,43,0.00,,,0.00,WUHU21623XXSP,2013-05-27 19:48:00,
2013-05-27 15:53:00,68.5,44.5,30.61,WSW,247,0.0,0.0,42,0.00,,,0.00,WUHU21623XXSP,2013-05-27 19:53:00,
2013-05-27 15:58:00,67.8,43.8,30.61,WSW,247,0.0,0.0,42,0.00,,,0.00,WUHU21623XXSP,2013-05-27 19:58:00,
2013-05-27 16:03:00,67.3,43.9,30.61,WSW,247,0.0,0.0,43,0.00,,,0.00,WUHU21623XXSP,2013-05-27 20:03:00,
2013-05-27 16:08:00,67.3,44.5,30.61,WSW,247,0.0,0.0,44,0.00,,,0.00,WUHU21623XXSP,2013-05-27 20:08:00,
2013-05-27 16:13:00,67.1,44.4,30.61,WSW,247,0.0,0.0,44,0.00,,,0.00,WUHU21623XXSP,2013-05-27 20:13:00,
2013-05-27 16:18:00,67.3,45.7,30.60,WSW,247,0.0,0.0,46,0.00,,,0.00,WUHU21623XXSP,2013-05-27 20:18:00,
2013-05-27 16:23:00,67.3,45.1,30.60,WSW,247,0.0,0.0,45,0.00,,,0.00,WUHU21623XXSP,2013-05-27 20:23:00,
2013-05-27 16:28:00,67.6,46.6,30.60,WSW,247,0.0,0.0,47,0.00,,,0.00,WUHU21623XXSP,2013-05-27 20:28:00,
2013-05-27 16:33:00,67.8,45.6,30.59,WSW,247,0.0,0.0,45,0.00,,,0.00,WUHU21623XXSP,2013-05-27 20:33:00,
2013-05-27 16:38:00,67.6,45.4,30.59,WSW,247,0.0,0.0,45,0.00,,,0.00,WUHU21623XXSP,2013-05-27 20:38:00,
2013-05-27 16:43:00,67.6,46.0,30.59,WSW,247,0.0,0.0,45,0.00,,,0.00,WUHU21623XXSP,2013-05-27 20:43:00,
2013-05-27 16:48:00,67.3,45.7,30.59,WSW,247,0.0,0.0,46,0.00,,,0.00,WUHU21623XXSP,2013-05-27 20:48:00,
2013-05-27 16:53:00,67.1,45.6,30.59,NW,315,0.0,0.0,46,0.00,,,0.00,WUHU21623XXSP,2013-05-27 20:53:00,
2013-05-27 16:58:00,67.3,46.3,30.59,NW,315,0.0,0.0,47,0.00,,,0.00,WUHU21623XXSP,2013-05-27 20:58:00,
2013-05-27 17:03:00,67.3,45.7,30.59,NNW,337,0.0,0.0,46,0.00,,,0.00,WUHU21623XXSP,2013-05-27 21:03:00,
2013-05-27 17:08:00,67.1,46.1,30.59,NNE,22,0.0,0.0,47,0.00,,,0.00,WUHU21623XXSP,2013-05-27 21:08:00,
2013-05-27 17:13:00,66.4,44.9,30.59,West,270,0.0,0.0,46,0.00,,,0.00,WUHU21623XXSP,2013-05-27 21:13:00,
2013-05-27 17:18:00,66.0,44.0,30.59,NW,315,0.0,0.0,45,0.00,,,0.00,WUHU21623XXSP,2013-05-27 21:18:00,
2013-05-27 17:23:00,65.8,43.8,30.59,NE,45,0.0,0.0,45,0.00,,,0.00,WUHU21623XXSP,2013-05-27 21:23:00,
2013-05-27 17:28:00,65.5,43.5,30.58,NW,315,0.0,0.0,45,0.00,,,0.00,WUHU21623XXSP,2013-05-27 21:28:00,
2013-05-27 17:33:00,66.0,44.0,30.57,NNW,337,0.0,0.0,45,0.00,,,0.00,WUHU21623XXSP,2013-05-27 21:33:00,
2013-05-27 17:38:00,66.7,45.2,30.57,WNW,292,0.0,0.0,46,0.00,,,0.00,WUHU21623XXSP,2013-05-27 21:38:00,
2013-05-27 17:44:00,68.4,45.5,30.56,WSW,247,0.0,0.0,44,0.00,,,0.00,WUHU21623XXSP,2013-05-27 21:44:00,
2013-05-27 17:49:00,68.7,45.2,30.56,NNE,22,0.0,0.0,43,0.00,,,0.00,WUHU21623XXSP,2013-05-27 21:49:00,
2013-05-27 17:54:00,69.6,46.0,30.56,NNE,22,0.0,0.0,43,0.00,,,0.00,WUHU21623XXSP,2013-05-27 21:54:00,
2013-05-27 17:59:00,70.2,45.9,30.56,North,0,0.0,0.0,42,0.00,,,0.00,WUHU21623XXSP,2013-05-27 21:59:00,
2013-05-27 18:04:00,70.0,45.2,30.56,NNE,22,0.0,0.0,41,0.00,,,0.00,WUHU21623XXSP,2013-05-27 22:04:00,
2013-05-27 18:09:00,69.6,45.4,30.56,ENE,67,0.0,0.0,42,0.00,,,0.00,WUHU21623XXSP,2013-05-27 22:09:00,
2013-05-27 18:14:00,68.7,45.2,30.56,ENE,67,0.0,0.0,43,0.00,,,0.00,WUHU21623XXSP,2013-05-27 22:14:00,
2013-05-27 18:19:00,68.4,45.5,30.56,NW,315,0.0,0.0,44,0.00,,,0.00,WUHU21623XXSP,2013-05-27 22:19:00,
2013-05-27 18:24:00,67.6,45.4,30.56,ENE,67,0.0,0.0,45,0.00,,,0.00,WUHU21623XXSP,2013-05-27 22:24:00,
2013-05-27 18:29:00,67.6,46.6,30.56,NE,45,0.0,0.0,47,0.00,,,0.00,WUHU21623XXSP,2013-05-27 22:29:00,
2013-05-27 18:34:00,67.6,46.6,30.55,West,270,0.0,0.0,47,0.00,,,0.00,WUHU21623XXSP,2013-05-27 22:34:00,
2013-05-27 18:39:00,67.3,46.9,30.55,SE,135,0.0,0.0,48,0.00,,,0.00,WUHU21623XXSP,2013-05-27 22:39:00,
2013-05-27 18:44:00,66.7,46.4,30.55,NW,315,0.0,0.0,48,0.00,,,0.00,WUHU21623XXSP,2013-05-27 22:44:00,
2013-05-27 18:49:00,66.4,46.7,30.55,NNE,22,0.0,0.0,49,0.00,,,0.00,WUHU21623XXSP,2013-05-27 22:49:00,
2013-05-27 18:54:00,66.0,46.3,30.55,NNW,337,0.0,0.0,49,0.00,,,0.00,WUHU21623XXSP,2013-05-27 22:54:00,
2013-05-27 18:59:00,65.5,45.8,30.55,North,0,0.0,0.0,49,0.00,,,0.00,WUHU21623XXSP,2013-05-27 22:59:00,
2013-05-27 19:04:00,65.3,46.2,30.54,WSW,247,0.0,0.0,50,0.00,,,0.00,WUHU21623XXSP,2013-05-27 23:04:00,
2013-05-27 19:09:00,65.1,46.5,30.54,NNW,337,0.0,0.0,51,0.00,,,0.00,WUHU21623XXSP,2013-05-27 23:09:00,
2013-05-27 19:14:00,64.6,45.5,30.54,NNW,337,0.0,0.0,50,0.00,,,0.00,WUHU21623XXSP,2013-05-27 23:14:00,
2013-05-27 19:19:00,64.2,45.6,30.54,West,270,0.0,0.0,51,0.00,,,0.00,WUHU21623XXSP,2013-05-27 23:19:00,
2013-05-27 19:24:00,64.0,46.0,30.54,West,270,0.0,0.0,52,0.00,,,0.00,WUHU21623XXSP,2013-05-27 23:24:00,
2013-05-27 19:29:00,63.9,45.8,30.54,West,270,0.0,0.0,52,0.00,,,0.00,WUHU21623XXSP,2013-05-27 23:29:00,
2013-05-27 19:34:00,63.5,46.0,30.55,West,270,0.0,0.0,53,0.00,,,0.00,WUHU21623XXSP,2013-05-27 23:34:00,
2013-05-27 19:39:00,63.3,45.8,30.55,North,0,0.0,0.0,53,0.00,,,0.00,WUHU21623XXSP,2013-05-27 23:39:00,
2013-05-27 19:44:00,63.1,45.6,30.55,North,0,0.0,0.0,53,0.00,,,0.00,WUHU21623XXSP,2013-05-27 23:44:00,
2013-05-27 19:50:00,63.0,46.0,30.55,NNW,337,0.0,0.0,54,0.00,,,0.00,WUHU21623XXSP,2013-05-27 23:50:00,
2013-05-27 19:55:00,62.8,45.8,30.54,North,0,0.0,0.0,54,0.00,,,0.00,WUHU21623XXSP,2013-05-27 23:55:00,
2013-05-27 20:00:00,62.8,45.8,30.54,ENE,67,0.0,0.0,54,0.00,,,0.00,WUHU21623XXSP,2013-05-28 00:00:00,
2013-05-27 20:05:00,62.4,45.5,30.54,NNW,337,0.0,0.0,54,0.00,,,0.00,WUHU21623XXSP,2013-05-28 00:05:00,
2013-05-27 20:10:00,62.2,45.8,30.54,NW,315,0.0,0.0,55,0.00,,,0.00,WUHU21623XXSP,2013-05-28 00:10:00,
2013-05-27 20:15:00,61.9,45.5,30.54,WNW,292,0.0,0.0,55,0.00,,,0.00,WUHU21623XXSP,2013-05-28 00:15:00,
2013-05-27 20:20:00,61.5,45.6,30.53,WNW,292,0.0,0.0,56,0.00,,,0.00,WUHU21623XXSP,2013-05-28 00:20:00,
2013-05-27 20:25:00,61.3,45.5,30.54,East,90,0.0,0.0,56,0.00,,,0.00,WUHU21623XXSP,2013-05-28 00:25:00,
2013-05-27 20:30:00,61.3,45.5,30.54,NNW,337,0.0,0.0,56,0.00,,,0.00,WUHU21623XXSP,2013-05-28 00:30:00,
2013-05-27 20:35:00,61.0,45.2,30.54,NNE,22,0.0,0.0,56,0.00,,,0.00,WUHU21623XXSP,2013-05-28 00:35:00,
2013-05-27 20:40:00,60.6,44.8,30.54,ESE,112,0.0,0.0,56,0.00,,,0.00,WUHU21623XXSP,2013-05-28 00:40:00,
2013-05-27 20:45:00,60.4,45.1,30.54,NW,315,0.0,0.0,57,0.00,,,0.00,WUHU21623XXSP,2013-05-28 00:45:00,
2013-05-27 20:50:00,60.1,44.8,30.54,NE,45,0.0,0.0,57,0.00,,,0.00,WUHU21623XXSP,2013-05-28 00:50:00,
2013-05-27 20:55:00,60.1,45.2,30.54,NNE,22,0.0,0.0,58,0.00,,,0.00,WUHU21623XXSP,2013-05-28 00:55:00,
2013-05-27 21:00:00,59.7,44.9,30.54,WNW,292,0.0,0.0,58,0.00,,,0.00,WUHU21623XXSP,2013-05-28 01:00:00,
2013-05-27 21:05:00,59.5,44.3,30.53,North,0,0.0,0.0,57,0.00,,,0.00,WUHU21623XXSP,2013-05-28 01:05:00,
2013-05-27 21:10:00,59.4,43.6,30.53,WSW,247,0.0,0.0,56,0.00,,,0.00,WUHU21623XXSP,2013-05-28 01:10:00,
2013-05-27 21:15:00,59.2,43.4,30.53,West,270,0.0,0.0,56,0.00,,,0.00,WUHU21623XXSP,2013-05-28 01:15:00,
2013-05-27 21:20:00,58.8,43.1,30.53,West,270,0.0,0.0,56,0.00,,,0.00,WUHU21623XXSP,2013-05-28 01:20:00,
2013-05-27 21:25:00,58.8,43.1,30.54,NW,315,0.0,0.0,56,0.00,,,0.00,WUHU21623XXSP,2013-05-28 01:25:00,
2013-05-27 21:30:00,58.6,42.9,30.54,NW,315,0.0,0.0,56,0.00,,,0.00,WUHU21623XXSP,2013-05-28 01:30:00,
2013-05-27 21:35:00,58.6,43.4,30.54,NW,315,0.0,0.0,57,0.00,,,0.00,WUHU21623XXSP,2013-05-28 01:35:00,
2013-05-27 21:40:00,58.6,43.4,30.54,ENE,67,0.0,0.0,57,0.00,,,0.00,WUHU21623XXSP,2013-05-28 01:40:00,
2013-05-27 21:45:00,58.5,43.3,30.54,ENE,67,0.0,0.0,57,0.00,,,0.00,WUHU21623XXSP,2013-05-28 01:45:00,
2013-05-27 21:50:00,58.3,43.1,30.54,NNW,337,0.0,0.0,57,0.00,,,0.00,WUHU21623XXSP,2013-05-28 01:50:00,
2013-05-27 21:55:00,58.3,43.1,30.54,ENE,67,0.0,0.0,57,0.00,,,0.00,WUHU21623XXSP,2013-05-28 01:55:00,
2013-05-27 22:00:00,58.1,42.9,30.54,NNE,22,0.0,0.0,57,0.00,,,0.00,WUHU21623XXSP,2013-05-28 02:00:00,
2013-05-27 22:05:00,58.1,43.4,30.54,NE,45,0.0,0.0,58,0.00,,,0.00,WUHU21623XXSP,2013-05-28 02:05:00,
2013-05-27 22:10:00,57.9,44.2,30.54,NE,45,0.0,0.0,60,0.00,,,0.00,WUHU21623XXSP,2013-05-28 02:10:00,
2013-05-27 22:15:00,57.7,44.8,30.54,West,270,0.0,0.0,62,0.00,,,0.00,WUHU21623XXSP,2013-05-28 02:15:00,
2013-05-27 22:20:00,57.4,44.9,30.54,NW,315,0.0,0.0,63,0.00,,,0.00,WUHU21623XXSP,2013-05-28 02:20:00,
2013-05-27 22:25:00,57.0,44.9,30.55,NW,315,0.0,0.0,64,0.00,,,0.00,WUHU21623XXSP,2013-05-28 02:25:00,
2013-05-27 22:30:00,56.8,44.7,30.55,North,0,0.0,0.0,64,0.00,,,0.00,WUHU21623XXSP,2013-05-28 02:30:00,
2013-05-27 22:35:00,56.8,45.2,30.55,NW,315,0.0,0.0,65,0.00,,,0.00,WUHU21623XXSP,2013-05-28 02:35:00,
2013-05-27 22:40:00,56.5,44.8,30.55,NNW,337,0.0,0.0,65,0.00,,,0.00,WUHU21623XXSP,2013-05-28 02:40:00,
2013-05-27 22:46:00,56.5,45.6,30.55,East,90,0.0,0.0,67,0.00,,,0.00,WUHU21623XXSP,2013-05-28 02:46:00,
2013-05-27 22:51:00,56.3,45.4,30.54,WNW,292,0.0,0.0,67,0.00,,,0.00,WUHU21623XXSP,2013-05-28 02:51:00,
2013-05-27 22:56:00,56.3,45.4,30.54,North,0,0.0,0.0,67,0.00,,,0.00,WUHU21623XXSP,2013-05-28 02:56:00,
2013-05-27 23:01:00,56.1,45.7,30.53,NNE,22,0.0,0.0,68,0.00,,,0.00,WUHU21623XXSP,2013-05-28 03:01:00,
2013-05-27 23:06:00,56.1,45.7,30.53,NE,45,0.0,0.0,68,0.00,,,0.00,WUHU21623XXSP,2013-05-28 03:06:00,
2013-05-27 23:11:00,55.9,45.9,30.53,North,0,0.0,0.0,69,0.00,,,0.00,WUHU21623XXSP,2013-05-28 03:11:00,
2013-05-27 23:16:00,55.9,45.9,30.53,NE,45,0.0,0.0,69,0.00,,,0.00,WUHU21623XXSP,2013-05-28 03:16:00,
2013-05-27 23:21:00,55.9,46.3,30.53,SW,225,0.0,0.0,70,0.00,,,0.00,WUHU21623XXSP,2013-05-28 03:21:00,
2013-05-27 23:26:00,55.8,46.2,30.53,NNW,337,0.0,0.0,70,0.00,,,0.00,WUHU21623XXSP,2013-05-28 03:26:00,
2013-05-27 23:31:00,55.8,46.2,30.53,East,90,0.0,0.0,70,0.00,,,0.00,WUHU21623XXSP,2013-05-28 03:31:00,
2013-05-27 23:36:00,55.8,46.2,30.53,ENE,67,0.0,0.0,70,0.00,,,0.00,WUHU21623XXSP,2013-05-28 03:36:00,
2013-05-27 23:41:00,55.6,46.4,30.52,WSW,247,0.0,0.0,71,0.00,,,0.00,WUHU21623XXSP,2013-05-28 03:41:00,
2013-05-27 23:46:00,55.6,46.4,30.52,WNW,292,0.0,0.0,71,0.00,,,0.00,WUHU21623XXSP,2013-05-28 03:46:00,
2013-05-27 23:51:00,55.6,46.4,30.52,WNW,292,0.0,0.0,71,0.00,,,0.00,WUHU21623XXSP,2013-05-28 03:51:00,
2013-05-27 23:56:00,55.4,46.2,30.52,SW,225,0.0,0.0,71,0.00,,,0.00,WUHU21623XXSP,2013-05-28 03:56:00,